Regional Weather Roundup
Issued by NWS

Home | Current Version | Previous Version | Graphics & Text | Print | Product List | Glossary On
Versions: 1 2 3 4 5 6 7 8 9 10 11 12 13 14 15 16 17 18 19 20 21 22 23 24 25 26 27 28 29 30 31 32 33 34 35 36 37 38 39 40 41 42 43 44 45 46 47 48 49 50
000
ASUS43 KDTX 040201
RWRMI
MICHIGAN HOURLY REGIONAL WEATHER ROUNDUP
NATIONAL WEATHER SERVICE DETROIT/PONTIAC MI
1000 PM EDT SUN MAY 03 2015

NOTE: "FAIR" INDICATES FEW OR NO CLOUDS BELOW 12,000 FEET WITH NO
SIGNIFICANT WEATHER AND/OR OBSTRUCTION TO VISIBILITY.

MIZ047>049-052>055-059>063-066>070-074>076-081>083-040300-
SOUTHEAST LOWER MICHIGAN

CITY           SKY/WX    TMP DP  RH WIND       PRES   REMARKS
ADRIAN         CLEAR     66  46  48 SW8       30.03R
ALMA           CLOUDY    68  46  46 S6        29.94F
ANN ARBOR      PTCLDY    67  46  47 S7        30.02R
BAD AXE        MOCLDY    65  43  45 S7        29.97S
CARO           CLOUDY    65  47  52 CALM      29.96S
DETROIT CITY   PTCLDY    68  47  46 S6        30.02R
DETROIT        PTCLDY    68  47  46 S7        30.03R
FLINT          MOCLDY    71  45  39 S6        29.99R
GROSSE ILE     PTCLDY    61  55  82 S8        30.01R
HILLSDALE      PTCLDY    68  46  44 S5        30.03R
HOWELL         CLOUDY    69  44  40 S7        30.00R

CITY           SKY/WX    TMP DP  RH WIND       PRES   REMARKS
JACKSON        PTCLDY    69  46  43 S9        30.01R
LAMBERTVILLE   CLEAR     68  43  40 S3        30.04R
LANSING        MOCLDY    69  46  43 S9        29.98R
LAPEER         MOCLDY    64  43  45 S5        30.00R
MASON          MOCLDY    67  45  45 S3        29.99S
MONROE         CLEAR     66  45  45 S6        30.02R
PONTIAC        MOCLDY    70  45  40 S7        30.00R
PORT HOPE        N/A     69  42  37 S5        29.94R
PORT HURON     PTCLDY    64  46  52 S9        30.02R
TRI CITIES     CLOUDY    73  46  38 S7        29.95S
MIDLAND        CLOUDY    73  44  35 S5        29.93S
TROY           CLEAR     73  43  33 S7        30.03R
SAGINAW HB     CLOUDY    70  43  37 S7        29.96S
$$
MIZ043>046-050>051-056>058-064>065-071>073-077>080-040300-
SOUTHWEST LOWER MICHIGAN

CITY           SKY/WX    TMP DP  RH WIND       PRES   REMARKS
BATTLE CREEK   MOCLDY    70  46  42 S10       29.99S
BENTON HARBOR  CLOUDY    61  50  67 SW8       29.96R
BIG RAPIDS     MOCLDY    68  43  39 SE6       29.91S
COLDWATER      MOCLDY    69  44  41 S7        30.01R
FREMONT        FAIR      67  38  35 S3        29.90F
HOLLAND        CLOUDY    71  47  42 S9        29.94R
GRAND RAPIDS   CLOUDY    71  45  39 S9        29.94S
IONIA          FAIR      70  44  39 S9        29.95R
KALAMAZOO      CLOUDY    69  46  43 S8        29.98S
LUDINGTON      CLEAR     65  51  60 SW13      29.89S
MARSHALL       PTCLDY    67  47  47 S7        29.99S
MOUNT PLEASANT MOCLDY    69  44  40 SE3       29.93S
MUSKEGON       CLOUDY    58  41  53 SW7       29.92R
SOUTH HAVEN    CLOUDY    74  42  32 W15G28    29.95R
$$
MIZ016>042-040300-
NORTHERN LOWER MICHIGAN

CITY           SKY/WX    TMP DP  RH WIND       PRES   REMARKS
ALPENA         PTCLDY    71  45  39 S6        29.91R
BEAVER ISLAND  MOCLDY    69  48  47 W9G22     29.87R
BELLAIRE       CLOUDY    70  47  44 CALM      29.88R
CADILLAC       MOCLDY    66  46  47 S6        29.91R
CHARLEVOIX     CLEAR     69  48  47 S7        29.89S
FRANKFORT      CLEAR     69  47  45 SW12G21   29.87R
GAYLORD        PTCLDY    68  46  45 SW9       29.92R
GRAYLING       PTCLDY    67  44  44 CALM      29.93R
HARBOR SPRINGS PTCLDY    63  46  54 CALM      29.88R
HOUGHTON LAKE  CLEAR     66  45  46 S7        29.93R
MANISTEE       CLEAR     66  48  52 SW9       29.89R
OSCODA         CLOUDY    66  46  47 S3        29.93R
PELLSTON       PTCLDY    71  46  40 SW6       29.88R
ROGERS CITY    PTCLDY    64  48  57 S8        29.90R
TRAVERSE CITY  CLOUDY    72  48  42 VRB3      29.88R
$$
MIZ007>008-015-040300-
EASTERN UPPER MICHIGAN

CITY           SKY/WX    TMP DP  RH WIND       PRES   REMARKS
KINROSS        CLOUDY    61  45  55 S8        29.88R
MACKINAC ISLAN MOCLDY    56  43  61 CALM      29.88S
NEWBERRY       RAIN      54  51  88 S6        29.86F
S. S. MARIE    RAIN      64  48  56 SW5       29.88R
MUNISING         N/A     62  56  80 S12G20    29.79R
$$
MIZ004>006-011>014-085-040300-
CENTRAL UPPER MICHIGAN

CITY           SKY/WX    TMP DP  RH WIND       PRES   REMARKS
MANISTIQUE     HVY RAIN  51  46  84 SE13      29.83F
ESCANABA       CLOUDY    61  48  63 N6        29.83R THUNDER
MENOMINEE      PTCLDY    70  54  56 SW13      29.79R
SAWYER-GWINN   CLOUDY    59  55  88 W7        29.85R
$$
MIZ001>003-009>011-084-040300-
WESTERN UPPER MICHIGAN

CITY           SKY/WX    TMP DP  RH WIND       PRES   REMARKS
IRON MOUNTAIN  RAIN      60  56  86 S7        29.85R FOG
HOUGHTON       CLOUDY    58  40  51 NW14      29.82R
COPPER HARBOR    N/A     64  38  38 VRB6      29.81R
IRONWOOD       CLOUDY    57  45  62 SE8       29.83F
$$

ABBREVIATIONS USED IN REMARKS
   TC - TEMPERATURE IN CELSIUS
  WCI - WIND CHILL INDEX
   HX - HEAT INDEX
  VSB - VISIBILITY




USA.gov is the U.S. government's official web portal to all federal, state and local government web resources and services.